SCP
0 0 0 0 0 0 0 0 0 0 0 0 0 -0 -0 -0 -0 -0 -0 -0 -0 -0 -0 0 0 0 0 0 0 0 0 -0 0 0 0 0 0 0 0 0 0 0 0 0 -0 -0 0
0 0 0 0 0 0 0 0 0 0 0 0 0 0 -0 -0 -0 -0 -0 -0 -0 -0 -0 0 0 0 0 0 0 0 0 0 0 0 0 0 0 0 0 0 0 0 0 0 0 0 -0
0 0 0 0 0 0 0 0 0 0 0 0 0 0 0 -0 -0 -0 -0 -0 -0 -0 0 0 0 0 0 0 0 0 0 0 0 0 0 0 0 0 0 0 0 0 0 0 0 0 0
0 0 0 0 0 0 0 0 0 0 0 0 0 0 -0 0 -0 -0 -0 -0 -0 0 0 0 0 0 0 0 0 0 0 0 0 0 0 0 0 0 0 0 0 0 0 0 0 0 0
0 0 0 0 0 0 0 0 0 0 0 0 0 0 -0 -0 -0 -0 -0 -0 0 0 0 0 0 0 0 0 0 0 0 0 0 0 0 0 0 0 0 0 0 0 0 0 0 0 0
0 0 0 0 0 0 0 0 0 0 -0 -0 0 0 -0 -0 -0 -0 -0 0 -0 0 0 0 0 0 0 0 0 0 0 0 0 0 0 0 0 0 0 0 0 0 0 0 0 0 0
0 0 0 0 0 0 0 0 0 0 0 0 -0 0 0 -0 -0 -0 0 0 0 0 0 0 0 0 0 0 0 0 0 0 0 0 0 0 0 0 0 0 0 0 0 0 0 0 0
0 0 0 0 0 0 0 0 0 0 0 0 0 -0 -0 -0 -0 0 0 0 0 0 0 0 0 0 0 0 0 0 0 0 0 0 0 0 0 0 0 0 0 0 0 0 0 0 0
0 0 0 0 0 0 0 0 0 0 0 0 0 0 0 -0 -0 0 0 0 0 0 -0 0 0 0 0 0 0 0 0 0 0 0 0 0 0 0 0 0 0 0 0 0 0 0 0
0 0 0 0 0 0 0 0 0 0 0 0 0 0 0 -0 0 0 0 0 0 -0 0 0 0 0 0 0 0 0 0 0 0 0 0 0 0 0 0 0 0 0 0 0 0 0 0
0 0 0 0 0 0 0 0 0 0 0 0 0 0 0 0 0 0 0 0 0 0 0 0 0 0 0 0 0 0 0 0 0 0 0 0 0 0 0 0 0 0 0 0 0 0 0
0 0 0 0 0 0 0 0 0 0 0 0 0 0 0 0 0 0 0 0 0 0 0 0 0 0 0 0 0 0 0 0 0 0 0 0 0 0 0 0 0 0 0 0 0 0 0
0 0 0 0 0 0 0 0 0 0 0 0 0 0 0 0 0 0 0 0 0 0 0 0 0 0 0 0 0 0 0 0 0 0 0 0 0 0 0 0 0 0 0 0 0 0 0
0 0 0 0 0 0 0 0 0 0 0 0 0 0 0 0 0 0 0 0 0 0 0 0 0 0 0 0 0 0 0 0 0 0 0 0 0 0 0 0 0 0 0 0 0 0 0
0 0 0 0 0 0 0 0 0 0 0 0 0 0 0 0 0 0 0 0 0 0 0 0 0 0 0 0 0 0 0 0 0 0 0 0 0 0 0 0 0 0 0 0 0 0 0
0 0 0 0 0 0 0 0 0 0 0 0 0 0 0 0 0 0 0 0 0 0 0 0 0 0 0 0 0 0 0 0 0 0 0 0 0 0 0 0 0 0 0 0 0 0 0
0 0 0 0 0 0 0 0 0 0 0 0 0 0 0 0 0 0 0 0 0 0 0 0 0 0 0 0 0 0 0 0 0 0 0 0 0 0 0 0 0 0 0 0 0 0 0
0 0 0 0 0 0 0 0 0 0 0 0 0 0 0 0 0 0 0 0 0 0 0 0 0 0 0 0 0 0 0 0 0 0 0 0 0 0 0 0 0 0 0 0 0 0 0
0 0 0 0 0 0 0 0 0 0 0 0 0 0 0 0 0 0 0 0 0 0 0 0 0 0 0 0 0 0 0 0 0 0 0 0 0 0 0 0 0 0 0 0 0 0 0
0 0 0 0 0 0 0 0 0 0 0 0 0 0 0 0 0 0 0 0 0 0 0 0 0 0 0 0 0 0 0 0 0 0 0 0 0 0 0 0 0 0 0 0 0 0 0
0 0 0 0 0 0 0 0 0 0 0 0 0 0 0 0 0 0 0 0 0 0 0 0 0 0 0 0 0 0 0 0 0 0 0 0 0 0 0 0 0 0 0 0 0 0 0
0 0 0 0 0 0 0 0 0 0 0 0 0 0 0 0 0 0 0 0 0 0 0 0 0 0 0 0 0 0 0 0 0 0 0 0 0 0 0 0 0 0 0 0 0 0 0
0 0 0 0 0 0 0 0 0 0 0 0 0 0 0 0 0 0 0 0 0 0 0 0 0 0 0 0 0 0 0 0 0 0 0 0 0 0 0 0 0 0 0 0 0 0 0
0 0 0 0 0 0 0 0 0 0 0 0 0 0 0 0 0 0 0 0 0 0 0 0 0 0 0 0 0 0 0 0 0 0 0 0 0 0 0 0 0 0 0 0 0 0 0
0 0 0 0 0 0 0 0 0 0 0 0 0 0 0 0 0 0 0 0 0 0 0 0 0 0 0 0 0 0 0 0 0 0 0 0 0 0 0 0 0 0 0 0 0 0 0
0 0 0 0 0 0 0 0 0 0 0 0 0 0 0 0 0 0 0 0 0 0 0 0 0 0 0 0 0 0 0 0 0 0 0 0 0 0 0 0 0 0 0 0 0 0 0
0 0 0 0 0 0 0 0 0 0 0 0 0 0 0 0 0 0 0 0 0 0 0 0 0 0 0 0 0 0 0 0 0 0 0 0 0 0 0 0 0 0 0 0 0 0 0
0 0 0 0 0 0 0 0 0 0 0 0 0 0 0 0 0 0 0 0 0 0 0 0 0 0 0 0 0 0 0 0 0 0 0 0 0 0 0 0 0 0 0 0 0 0 0
0 0 0 0 0 0 0 0 0 0 0 0 0 0 0 0 0 0 0 0 0 0 0 0 0 0 0 0 0 0 0 0 0 0 0 0 0 0 0 0 0 0 0 0 0 0 0
Wind_Speed_500mb
33 35 37 38 39 38 36 36 37 37 37 38 38 37 35 34 33 32 32 30 29 26 16 12 11 10 10 10 10 6 7 24 30 23 21 27 18 10 8 10 8 8 8 11 24 15 25
34 36 37 38 39 39 39 38 37 38 39 39 40 39 38 37 36 34 32 31 29 25 16 11 10 9 9 9 10 8 9 17 27 23 30 21 7 3 5 8 10 9 15 20 12 10 14
34 35 36 37 38 40 40 40 40 39 40 41 41 41 40 40 38 35 32 31 27 21 15 12 11 11 18 22 10 13 15 15 19 29 29 15 5 1 2 5 4 4 11 2 4 6 7
33 34 35 36 37 39 41 42 43 42 42 43 43 43 42 41 40 37 34 29 23 17 13 11 13 13 16 12 19 23 15 22 22 29 18 14 3 3 4 2 2 2 3 5 8 6 9
34 36 36 37 38 40 42 43 44 45 45 45 45 44 43 41 40 36 32 26 17 11 10 12 13 12 15 9 14 25 22 23 26 25 17 9 7 4 3 4 4 3 6 3 3 5 15
37 37 39 39 39 41 42 43 44 45 46 46 47 45 43 41 39 34 24 17 6 6 9 13 19 10 18 7 6 19 28 22 22 21 12 9 7 6 4 7 10 11 8 4 4 8 7
42 39 38 41 42 43 43 43 44 45 46 47 47 47 44 40 36 30 14 5 8 8 13 17 7 11 7 3 5 17 32 28 20 15 12 7 10 14 10 9 4 7 3 4 8 4 7
45 45 45 44 44 44 44 44 44 44 45 46 48 47 44 38 35 12 7 7 12 12 20 28 44 49 36 23 7 11 26 21 14 14 10 7 15 13 7 14 10 10 9 14 10 2 8
42 43 43 45 46 47 47 47 46 45 44 44 46 46 44 35 25 2 3 7 15 17 10 18 33 36 42 36 20 22 30 26 13 15 14 14 3 12 10 11 14 13 16 12 10 2 3
43 44 45 45 45 46 47 48 48 47 46 43 43 44 43 36 14 14 6 9 20 7 7 8 9 10 25 23 13 43 31 27 6 24 15 9 8 12 11 9 13 9 16 17 10 9 6
46 46 46 47 47 46 47 48 48 49 47 45 42 40 38 35 30 15 11 12 13 1 8 5 7 7 22 31 18 33 44 24 26 13 13 12 12 19 12 8 13 2 2 11 8 8 3
46 48 48 48 48 49 47 47 48 49 48 46 43 38 37 34 29 14 14 10 4 4 15 1 10 11 16 24 4 17 21 17 17 13 4 18 4 6 7 7 7 13 8 10 7 3 8
50 49 48 48 50 50 49 46 47 49 49 46 44 38 37 36 22 17 9 7 7 10 7 6 5 11 11 19 11 16 27 25 21 21 21 8 17 6 8 9 6 7 5 5 7 8 7
48 47 47 49 49 50 50 48 46 47 48 48 45 40 37 31 29 20 14 6 15 8 10 7 1 5 15 18 18 10 27 28 16 16 11 20 14 18 15 24 6 9 8 7 8 7 1
49 45 45 43 44 47 48 48 47 46 46 49 44 40 34 22 24 30 17 18 13 12 5 9 12 8 13 15 13 12 23 36 34 24 16 11 13 4 9 7 11 11 9 6 11 3 6
46 48 45 42 40 41 43 44 45 45 43 43 42 40 25 16 20 41 12 13 9 8 5 3 6 2 11 19 20 29 21 13 19 26 18 13 4 3 7 11 17 4 18 7 3 9 11
37 44 42 40 37 37 38 39 43 45 38 35 30 17 11 14 24 24 17 14 13 14 11 5 5 6 5 6 14 16 26 6 22 23 22 14 6 4 6 8 14 9 7 8 7 1 7
35 38 37 31 32 35 35 36 40 41 36 25 11 6 9 40 12 7 16 10 11 6 6 6 5 9 10 6 7 10 19 15 18 30 22 18 12 20 22 3 4 2 7 11 9 11 2
32 36 29 28 26 30 33 34 35 36 34 30 20 11 8 14 8 9 6 10 7 7 8 4 6 11 1 6 7 7 10 0 24 22 25 20 11 10 7 6 5 9 8 6 11 6 12
32 30 28 26 24 27 29 31 30 32 29 26 8 5 5 22 9 6 12 10 13 9 12 12 9 8 6 8 6 9 9 3 9 11 11 17 9 19 20 14 8 9 10 14 3 9 15
31 28 28 25 27 25 24 25 26 30 25 17 6 3 3 6 15 15 4 2 18 9 7 10 10 22 14 10 8 8 5 9 7 14 8 7 9 8 5 14 13 14 24 17 5 8 5
27 28 27 24 23 23 21 19 23 28 26 10 4 6 9 10 9 10 16 8 13 9 7 8 11 5 24 13 11 14 10 6 6 6 7 2 8 9 7 8 21 23 19 17 8 9 5
26 25 25 24 25 23 23 17 19 22 23 5 6 6 6 7 4 4 11 25 13 9 14 31 13 12 11 25 14 5 2 11 9 8 7 7 15 9 13 5 5 7 17 16 11 13 8
26 27 23 25 27 19 19 16 19 18 17 15 11 8 3 6 6 5 4 4 15 14 8 8 12 9 2 17 29 21 28 26 20 17 7 11 11 4 9 12 12 6 5 6 10 10 15
26 26 22 19 23 16 18 17 14 14 21 19 13 6 4 7 10 14 6 7 14 11 10 10 11 7 8 10 6 9 5 5 10 13 8 2 9 8 8 11 3 4 11 11 8 6 16
21 22 19 19 17 15 17 15 16 19 17 15 14 14 10 7 5 11 8 5 5 4 5 10 10 5 12 2 3 9 10 11 10 9 4 13 10 5 7 8 13 6 4 9 8 17 16
20 22 21 20 18 19 15 17 17 12 12 15 16 11 13 11 8 8 3 6 8 5 7 8 12 1 4 3 5 5 8 5 14 20 12 7 6 8 8 6 3 9 7 17 12 4 13
22 21 17 18 18 19 18 18 15 12 15 18 14 16 22 10 26 24 16 8 15 5 6 14 5 4 1 6 9 6 5 8 8 8 9 13 12 6 7 6 14 12 16 15 3 6 18
19 22 24 17 19 20 19 16 14 12 14 15 12 6 15 27 17 20 35 35 33 28 19 9 8 5 5 3 3 6 6 6 7 11 3 8 3 9 12 7 4 10 1 9 7 9 16
Wind_Direction_500mb
359 358 356 355 355 354 353 352 351 349 347 345 343 342 341 339 336 333 329 325 322 318 296 295 287 284 284 269 241 172 122 180 181 185 186 172 168 155 179 169 168 233 267 234 261 239 227
351 351 351 351 350 350 349 349 347 346 344 343 340 339 337 336 332 329 327 321 317 312 287 276 275 273 276 258 203 198 166 175 196 190 173 167 153 169 148 172 206 217 258 275 292 288 194
342 343 343 344 345 345 345 345 344 343 341 340 339 338 336 334 330 327 326 318 313 306 281 263 261 272 277 252 211 184 166 160 182 180 177 167 94 37 199 185 239 264 291 317 74 131 164
336 337 338 339 339 341 341 340 339 339 339 337 337 336 336 335 330 326 324 319 311 301 271 257 261 276 261 240 224 208 196 176 174 182 169 160 210 294 213 260 4 263 258 183 63 162 139
331 331 332 332 334 335 336 336 336 335 336 335 334 334 335 335 331 328 325 321 311 288 255 243 253 257 263 237 232 204 195 182 177 186 182 183 287 172 170 189 244 44 194 155 98 38 153
328 327 327 328 329 331 332 333 333 333 333 332 331 332 333 336 332 331 327 319 328 290 245 248 240 277 244 163 144 195 176 163 167 178 180 197 155 166 121 201 222 208 189 200 202 180 200
328 328 326 325 325 326 327 328 329 330 330 330 330 329 331 336 332 335 336 293 302 283 238 224 218 226 160 151 174 192 188 177 156 158 169 156 199 207 215 209 173 147 174 265 266 274 249
320 323 323 324 323 324 324 325 325 326 327 328 327 327 329 335 333 345 15 78 51 310 299 256 246 245 242 246 299 201 188 170 171 179 145 165 230 213 160 165 176 188 208 226 266 248 209
317 319 321 322 323 323 324 324 324 324 324 325 325 325 326 334 333 9 134 57 349 331 257 279 239 238 233 231 226 220 185 178 167 163 181 205 126 158 169 171 186 206 213 209 238 121 88
318 318 318 318 319 320 322 323 323 323 322 323 324 324 325 331 325 335 209 339 330 322 288 255 220 231 191 189 223 223 201 176 146 195 163 232 193 204 208 238 200 230 218 247 205 186 252
318 317 316 316 317 318 319 320 320 320 321 321 321 321 321 321 312 312 251 292 316 348 297 124 166 165 178 182 154 194 197 184 181 163 180 196 187 184 185 174 188 313 292 183 165 141 235
319 317 316 315 315 315 317 317 317 316 317 317 316 316 311 309 305 297 247 243 168 231 246 334 140 162 158 215 199 137 165 177 167 150 213 220 222 222 163 176 215 156 112 76 84 113 246
316 315 314 315 315 315 315 315 314 313 314 313 311 308 300 296 291 277 226 187 186 222 339 165 168 170 188 187 194 164 176 180 182 192 206 203 226 232 188 252 142 161 153 143 202 215 276
309 314 314 313 313 314 315 314 312 311 311 310 309 303 293 282 270 254 215 174 213 226 257 317 1 212 192 165 206 155 169 187 198 174 169 207 226 197 183 217 215 176 203 175 213 221 205
310 314 314 313 312 311 312 314 312 312 312 310 312 305 296 272 245 213 184 206 208 211 297 317 301 229 196 200 205 168 187 200 192 180 186 166 230 210 202 153 182 150 191 83 113 71 240
307 311 313 314 313 316 313 315 315 313 315 316 318 311 287 248 217 185 197 226 232 228 325 336 259 283 210 184 178 194 185 187 194 193 187 188 179 195 123 123 55 207 135 153 130 192 238
303 305 309 313 312 317 316 320 320 318 319 319 318 309 279 254 171 169 207 218 227 240 238 231 278 289 284 212 205 185 195 170 200 182 198 160 212 152 192 201 195 147 178 67 100 307 238
301 308 311 316 312 315 320 324 325 327 326 323 307 265 327 143 178 186 213 203 214 231 195 264 254 258 252 294 195 171 185 216 182 152 182 187 193 232 242 46 307 236 169 171 224 190 169
305 307 315 313 309 311 316 324 326 334 337 342 320 268 196 194 211 201 219 227 244 220 217 224 260 232 167 261 222 180 168 171 157 163 164 171 203 198 169 167 167 211 166 149 111 128 178
306 306 307 307 300 309 314 324 327 331 329 335 303 281 162 209 269 265 199 215 213 218 238 220 255 280 245 239 218 192 152 115 136 151 156 143 135 199 214 213 139 172 159 163 290 185 168
298 302 298 297 296 304 306 318 328 334 329 326 262 271 309 197 231 249 262 255 193 210 230 215 218 229 237 226 185 191 161 138 99 147 88 154 151 170 105 162 160 157 162 167 163 148 225
294 298 295 292 295 296 297 304 319 330 337 313 283 335 328 279 285 248 220 223 221 251 235 240 227 276 222 230 222 182 173 199 163 123 111 114 121 126 115 123 144 137 150 170 150 170 231
283 288 289 292 291 294 289 292 308 327 341 318 301 299 300 279 260 210 230 228 232 190 248 241 283 292 221 222 241 273 152 118 110 148 128 137 145 156 155 102 86 182 192 178 156 177 189
279 284 274 275 287 286 271 282 293 304 322 327 298 306 287 268 262 238 315 318 224 218 252 280 296 237 120 136 112 102 81 84 82 63 66 132 115 64 129 144 212 62 342 229 170 175 205
278 283 284 273 281 289 271 274 285 300 299 297 297 275 248 276 309 279 280 281 290 266 250 255 261 266 252 184 126 117 46 117 71 41 49 124 129 105 168 194 15 167 189 166 169 238 210
292 285 278 269 288 279 268 259 276 292 286 274 285 262 237 280 214 316 309 309 301 297 256 238 249 308 167 162 153 154 169 169 175 133 70 89 86 160 161 187 210 174 161 148 133 277 199
296 305 274 263 266 268 275 262 274 281 289 285 288 264 219 254 265 351 332 331 341 311 281 307 334 5 122 153 132 153 166 173 164 184 168 139 84 173 145 207 238 248 165 150 214 327 174
275 286 298 274 266 262 262 261 272 272 257 272 291 264 227 254 270 277 282 333 342 1 331 347 277 207 125 162 183 149 185 170 143 143 174 179 169 148 113 172 240 157 142 206 178 161 180
284 275 284 285 265 268 263 258 275 274 258 268 288 275 222 235 263 267 276 270 273 274 281 296 302 297 347 125 170 133 124 203 145 164 102 180 226 182 204 186 96 193 164 222 183 165 172
Wind_Speed_850mb
33 35 37 38 39 38 36 36 37 37 37 38 38 37 35 34 33 32 32 30 29 26 16 12 11 10 10 10 10 6 7 24 30 23 21 27 18 10 8 10 8 8 8 11 24 15 25
34 36 37 38 39 39 39 38 37 38 39 39 40 39 38 37 36 34 32 31 29 25 16 11 10 9 9 9 10 8 9 17 27 23 30 21 7 3 5 8 10 9 15 20 12 10 14
34 35 36 37 38 40 40 40 40 39 40 41 41 41 40 40 38 35 32 31 27 21 15 12 11 11 18 22 10 13 15 15 19 29 29 15 5 1 2 5 4 4 11 2 4 6 7
33 34 35 36 37 39 41 42 43 42 42 43 43 43 42 41 40 37 34 29 23 17 13 11 13 13 16 12 19 23 15 22 22 29 18 14 3 3 4 2 2 2 3 5 8 6 9
34 36 36 37 38 40 42 43 44 45 45 45 45 44 43 41 40 36 32 26 17 11 10 12 13 12 15 9 14 25 22 23 26 25 17 9 7 4 3 4 4 3 6 3 3 5 15
37 37 39 39 39 41 42 43 44 45 46 46 47 45 43 41 39 34 24 17 6 6 9 13 19 10 18 7 6 19 28 22 22 21 12 9 7 6 4 7 10 11 8 4 4 8 7
42 39 38 41 42 43 43 43 44 45 46 47 47 47 44 40 36 30 14 5 8 8 13 17 7 11 7 3 5 17 32 28 20 15 12 7 10 14 10 9 4 7 3 4 8 4 7
45 45 45 44 44 44 44 44 44 44 45 46 48 47 44 38 35 12 7 7 12 12 20 28 44 49 36 23 7 11 26 21 14 14 10 7 15 13 7 14 10 10 9 14 10 2 8
42 43 43 45 46 47 47 47 46 45 44 44 46 46 44 35 25 2 3 7 15 17 10 18 33 36 42 36 20 22 30 26 13 15 14 14 3 12 10 11 14 13 16 12 10 2 3
43 44 45 45 45 46 47 48 48 47 46 43 43 44 43 36 14 14 6 9 20 7 7 8 9 10 25 23 13 43 31 27 6 24 15 9 8 12 11 9 13 9 16 17 10 9 6
46 46 46 47 47 46 47 48 48 49 47 45 42 40 38 35 30 15 11 12 13 1 8 5 7 7 22 31 18 33 44 24 26 13 13 12 12 19 12 8 13 2 2 11 8 8 3
46 48 48 48 48 49 47 47 48 49 48 46 43 38 37 34 29 14 14 10 4 4 15 1 10 11 16 24 4 17 21 17 17 13 4 18 4 6 7 7 7 13 8 10 7 3 8
50 49 48 48 50 50 49 46 47 49 49 46 44 38 37 36 22 17 9 7 7 10 7 6 5 11 11 19 11 16 27 25 21 21 21 8 17 6 8 9 6 7 5 5 7 8 7
48 47 47 49 49 50 50 48 46 47 48 48 45 40 37 31 29 20 14 6 15 8 10 7 1 5 15 18 18 10 27 28 16 16 11 20 14 18 15 24 6 9 8 7 8 7 1
49 45 45 43 44 47 48 48 47 46 46 49 44 40 34 22 24 30 17 18 13 12 5 9 12 8 13 15 13 12 23 36 34 24 16 11 13 4 9 7 11 11 9 6 11 3 6
46 48 45 42 40 41 43 44 45 45 43 43 42 40 25 16 20 41 12 13 9 8 5 3 6 2 11 19 20 29 21 13 19 26 18 13 4 3 7 11 17 4 18 7 3 9 11
37 44 42 40 37 37 38 39 43 45 38 35 30 17 11 14 24 24 17 14 13 14 11 5 5 6 5 6 14 16 26 6 22 23 22 14 6 4 6 8 14 9 7 8 7 1 7
35 38 37 31 32 35 35 36 40 41 36 25 11 6 9 40 12 7 16 10 11 6 6 6 5 9 10 6 7 10 19 15 18 30 22 18 12 20 22 3 4 2 7 11 9 11 2
32 36 29 28 26 30 33 34 35 36 34 30 20 11 8 14 8 9 6 10 7 7 8 4 6 11 1 6 7 7 10 0 24 22 25 20 11 10 7 6 5 9 8 6 11 6 12
32 30 28 26 24 27 29 31 30 32 29 26 8 5 5 22 9 6 12 10 13 9 12 12 9 8 6 8 6 9 9 3 9 11 11 17 9 19 20 14 8 9 10 14 3 9 15
31 28 28 25 27 25 24 25 26 30 25 17 6 3 3 6 15 15 4 2 18 9 7 10 10 22 14 10 8 8 5 9 7 14 8 7 9 8 5 14 13 14 24 17 5 8 5
27 28 27 24 23 23 21 19 23 28 26 10 4 6 9 10 9 10 16 8 13 9 7 8 11 5 24 13 11 14 10 6 6 6 7 2 8 9 7 8 21 23 19 17 8 9 5
26 25 25 24 25 23 23 17 19 22 23 5 6 6 6 7 4 4 11 25 13 9 14 31 13 12 11 25 14 5 2 11 9 8 7 7 15 9 13 5 5 7 17 16 11 13 8
26 27 23 25 27 19 19 16 19 18 17 15 11 8 3 6 6 5 4 4 15 14 8 8 12 9 2 17 29 21 28 26 20 17 7 11 11 4 9 12 12 6 5 6 10 10 15
26 26 22 19 23 16 18 17 14 14 21 19 13 6 4 7 10 14 6 7 14 11 10 10 11 7 8 10 6 9 5 5 10 13 8 2 9 8 8 11 3 4 11 11 8 6 16
21 22 19 19 17 15 17 15 16 19 17 15 14 14 10 7 5 11 8 5 5 4 5 10 10 5 12 2 3 9 10 11 10 9 4 13 10 5 7 8 13 6 4 9 8 17 16
20 22 21 20 18 19 15 17 17 12 12 15 16 11 13 11 8 8 3 6 8 5 7 8 12 1 4 3 5 5 8 5 14 20 12 7 6 8 8 6 3 9 7 17 12 4 13
22 21 17 18 18 19 18 18 15 12 15 18 14 16 22 10 26 24 16 8 15 5 6 14 5 4 1 6 9 6 5 8 8 8 9 13 12 6 7 6 14 12 16 15 3 6 18
19 22 24 17 19 20 19 16 14 12 14 15 12 6 15 27 17 20 35 35 33 28 19 9 8 5 5 3 3 6 6 6 7 11 3 8 3 9 12 7 4 10 1 9 7 9 16
Wind_Direction_850mb
359 358 356 355 355 354 353 352 351 349 347 345 343 342 341 339 336 333 329 325 322 318 296 295 287 284 284 269 241 172 122 180 181 185 186 172 168 155 179 169 168 233 267 234 261 239 227
351 351 351 351 350 350 349 349 347 346 344 343 340 339 337 336 332 329 327 321 317 312 287 276 275 273 276 258 203 198 166 175 196 190 173 167 153 169 148 172 206 217 258 275 292 288 194
342 343 343 344 345 345 345 345 344 343 341 340 339 338 336 334 330 327 326 318 313 306 281 263 261 272 277 252 211 184 166 160 182 180 177 167 94 37 199 185 239 264 291 317 74 131 164
336 337 338 339 339 341 341 340 339 339 339 337 337 336 336 335 330 326 324 319 311 301 271 257 261 276 261 240 224 208 196 176 174 182 169 160 210 294 213 260 4 263 258 183 63 162 139
331 331 332 332 334 335 336 336 336 335 336 335 334 334 335 335 331 328 325 321 311 288 255 243 253 257 263 237 232 204 195 182 177 186 182 183 287 172 170 189 244 44 194 155 98 38 153
328 327 327 328 329 331 332 333 333 333 333 332 331 332 333 336 332 331 327 319 328 290 245 248 240 277 244 163 144 195 176 163 167 178 180 197 155 166 121 201 222 208 189 200 202 180 200
328 328 326 325 325 326 327 328 329 330 330 330 330 329 331 336 332 335 336 293 302 283 238 224 218 226 160 151 174 192 188 177 156 158 169 156 199 207 215 209 173 147 174 265 266 274 249
320 323 323 324 323 324 324 325 325 326 327 328 327 327 329 335 333 345 15 78 51 310 299 256 246 245 242 246 299 201 188 170 171 179 145 165 230 213 160 165 176 188 208 226 266 248 209
317 319 321 322 323 323 324 324 324 324 324 325 325 325 326 334 333 9 134 57 349 331 257 279 239 238 233 231 226 220 185 178 167 163 181 205 126 158 169 171 186 206 213 209 238 121 88
318 318 318 318 319 320 322 323 323 323 322 323 324 324 325 331 325 335 209 339 330 322 288 255 220 231 191 189 223 223 201 176 146 195 163 232 193 204 208 238 200 230 218 247 205 186 252
318 317 316 316 317 318 319 320 320 320 321 321 321 321 321 321 312 312 251 292 316 348 297 124 166 165 178 182 154 194 197 184 181 163 180 196 187 184 185 174 188 313 292 183 165 141 235
319 317 316 315 315 315 317 317 317 316 317 317 316 316 311 309 305 297 247 243 168 231 246 334 140 162 158 215 199 137 165 177 167 150 213 220 222 222 163 176 215 156 112 76 84 113 246
316 315 314 315 315 315 315 315 314 313 314 313 311 308 300 296 291 277 226 187 186 222 339 165 168 170 188 187 194 164 176 180 182 192 206 203 226 232 188 252 142 161 153 143 202 215 276
309 314 314 313 313 314 315 314 312 311 311 310 309 303 293 282 270 254 215 174 213 226 257 317 1 212 192 165 206 155 169 187 198 174 169 207 226 197 183 217 215 176 203 175 213 221 205
310 314 314 313 312 311 312 314 312 312 312 310 312 305 296 272 245 213 184 206 208 211 297 317 301 229 196 200 205 168 187 200 192 180 186 166 230 210 202 153 182 150 191 83 113 71 240
307 311 313 314 313 316 313 315 315 313 315 316 318 311 287 248 217 185 197 226 232 228 325 336 259 283 210 184 178 194 185 187 194 193 187 188 179 195 123 123 55 207 135 153 130 192 238
303 305 309 313 312 317 316 320 320 318 319 319 318 309 279 254 171 169 207 218 227 240 238 231 278 289 284 212 205 185 195 170 200 182 198 160 212 152 192 201 195 147 178 67 100 307 238
301 308 311 316 312 315 320 324 325 327 326 323 307 265 327 143 178 186 213 203 214 231 195 264 254 258 252 294 195 171 185 216 182 152 182 187 193 232 242 46 307 236 169 171 224 190 169
305 307 315 313 309 311 316 324 326 334 337 342 320 268 196 194 211 201 219 227 244 220 217 224 260 232 167 261 222 180 168 171 157 163 164 171 203 198 169 167 167 211 166 149 111 128 178
306 306 307 307 300 309 314 324 327 331 329 335 303 281 162 209 269 265 199 215 213 218 238 220 255 280 245 239 218 192 152 115 136 151 156 143 135 199 214 213 139 172 159 163 290 185 168
298 302 298 297 296 304 306 318 328 334 329 326 262 271 309 197 231 249 262 255 193 210 230 215 218 229 237 226 185 191 161 138 99 147 88 154 151 170 105 162 160 157 162 167 163 148 225
294 298 295 292 295 296 297 304 319 330 337 313 283 335 328 279 285 248 220 223 221 251 235 240 227 276 222 230 222 182 173 199 163 123 111 114 121 126 115 123 144 137 150 170 150 170 231
283 288 289 292 291 294 289 292 308 327 341 318 301 299 300 279 260 210 230 228 232 190 248 241 283 292 221 222 241 273 152 118 110 148 128 137 145 156 155 102 86 182 192 178 156 177 189
279 284 274 275 287 286 271 282 293 304 322 327 298 306 287 268 262 238 315 318 224 218 252 280 296 237 120 136 112 102 81 84 82 63 66 132 115 64 129 144 212 62 342 229 170 175 205
278 283 284 273 281 289 271 274 285 300 299 297 297 275 248 276 309 279 280 281 290 266 250 255 261 266 252 184 126 117 46 117 71 41 49 124 129 105 168 194 15 167 189 166 169 238 210
292 285 278 269 288 279 268 259 276 292 286 274 285 262 237 280 214 316 309 309 301 297 256 238 249 308 167 162 153 154 169 169 175 133 70 89 86 160 161 187 210 174 161 148 133 277 199
296 305 274 263 266 268 275 262 274 281 289 285 288 264 219 254 265 351 332 331 341 311 281 307 334 5 122 153 132 153 166 173 164 184 168 139 84 173 145 207 238 248 165 150 214 327 174
275 286 298 274 266 262 262 261 272 272 257 272 291 264 227 254 270 277 282 333 342 1 331 347 277 207 125 162 183 149 185 170 143 143 174 179 169 148 113 172 240 157 142 206 178 161 180
284 275 284 285 265 268 263 258 275 274 258 268 288 275 222 235 263 267 276 270 273 274 281 296 302 297 347 125 170 133 124 203 145 164 102 180 226 182 204 186 96 193 164 222 183 165 172